Weather Roundup
Issued by NWS

Home | Current Version | Previous Version | Graphics & Text | Print | Product List | Glossary Off
Versions: 1 2 3 4 5 6 7 8 9 10 11 12 13 14 15 16 17 18 19 20 21 22 23 24 25 26 27 28 29 30 31 32 33 34 35 36 37 38 39 40 41 42 43 44 45 46 47 48 49 50

000
NZUS93 KARX 252010
HRRWXR

CURRENT HOURLY OBSERVATIONS ACROSS
MUCH OF THE UPPER MISSISSIPPI VALLEY
NATIONAL WEATHER SERVICE LA CROSSE WI
300 PM CDT WED MAY 25 2016


...SOUTHEAST MINNESOTA...


CITY           SKY/WX    TMP DP  RH WIND       PRES   REMARKS
ROCHESTER      CLOUDY    67  65  93 S5        29.86F
ROCHESTER/MAYO CLOUDY    65  65 100 S3        29.86F
WINONA         DRIZZLE   70  66  88 CALM      29.84F
AUSTIN         CLOUDY    72  63  73 S8G18     29.84F
ALBERT LEA     CLOUDY    73  63  68 SW9G16    29.83F
DODGE CENTER   LGT RAIN  64  63  94 SE7       29.85F
PRESTON        CLOUDY    67  63  89 S12       29.87R
OWATONNA       HVY RAIN  66  63  88 CALM      29.85R
FARIBAULT      CLOUDY    72  63  73 E13       29.84S
$$

...ELSEWHERE IN MINNESOTA...


CITY           SKY/WX    TMP DP  RH WIND       PRES   REMARKS
MINNEAPOLIS    CLOUDY    74  65  73 E12       29.83S
INTNL FALLS    CLOUDY    66  55  67 E13       29.92F
DULUTH         FOG       51  49  92 E17G23    29.95F VSB 3/4
RED WING       HVY RAIN  66  64  94 S6        29.85F
REDWOOD FALLS  MOSUNNY   80  62  54 SW17      29.79F
MANKATO        CLOUDY    75  61  60 SE7       29.82S
WORTHINGTON    MOSUNNY   75  62  64 SW12G21   29.83F
FAIRMONT       CLOUDY    73  57  56 S9        29.81F
$$

...SOUTHWEST WISCONSIN...


CITY           SKY/WX    TMP DP  RH WIND       PRES   REMARKS
LA CROSSE      LGT RAIN  71  67  87 CALM      29.84F
PRAIRIE DU CHI MOSUNNY   80  60  50 S6        29.84F
BOSCOBEL       CLOUDY    87  61  41 S12G23    29.84F
LONE ROCK      CLOUDY    88  60  38 S16G25    29.84F
PLATTEVILLE    MOSUNNY   84  61  46 S20G26    29.87F
FORT MC COY    CLOUDY    74  68  82 S5        29.87F
CAMP DOUGLAS   TSTM      72  72 100 S3        29.88R
MAUSTON-NEW LI LGT RAIN  70  67  89 CALM      29.86F
VIROQUA        CLOUDY    70  65  84 E8        29.88F
WIS DELLS      CLOUDY    78  62  56 SE23G29   29.88F
$$

...ELSEWHERE IN WISCONSIN...


CITY           SKY/WX    TMP DP  RH WIND       PRES   REMARKS
MILWAUKEE      CLOUDY    57  50  77 NE12      29.97F
MADISON        CLOUDY    83  60  45 S15G26    29.87F THUNDER
GREEN BAY      MOSUNNY   70  59  68 NE14      29.97F
EAU CLAIRE     TSTM      68  65  90 E6        29.86R
BLACK RVR FLS  LGT RAIN  69  68  99 CALM      29.85F
MEDFORD        CLOUDY    74  61  62 E13G21    29.88F
WAUSAU         MOSUNNY   77  59  53 E16G23    29.90F
WIS RAPIDS     CLOUDY    77  59  53 E17       29.89F
MARSHFIELD     CLOUDY    74  61  63 SE10      29.88F
RICE LAKE      RAIN      72  63  72 SW3       29.86F
$$

...NORTHEAST IOWA...


CITY           SKY/WX    TMP DP  RH WIND       PRES   REMARKS
WATERLOO       MOSUNNY   76  62  62 SW15      29.84F
DUBUQUE        PTSUNNY   80  64  58 S17G26    29.87F
DECORAH        CLOUDY    72  70  94 CALM      29.85F
MASON CITY     CLOUDY    73  65  75 SW14G20   29.85F
CHARLES CITY   CLOUDY    73  68  83 S16       29.86F
OELWEIN        CLOUDY    77  64  65 S21G26    29.87F
$$

...ELSEWHERE IN IOWA...


CITY           SKY/WX    TMP DP  RH WIND       PRES   REMARKS
DES MOINES     CLOUDY    76  63  64 S9        29.86R
IOWA CITY      CLOUDY    80  62  54 S12       29.88F
FORT DODGE     CLOUDY    75  63  64 SW12      29.85S
MARSHALLTOWN   PTSUNNY   78  64  61 S15       29.84F
CEDAR RAPIDS   CLOUDY    79  64  60 S14       29.86S
$$

...NORTHERN ILLINOIS...


CITY           SKY/WX    TMP DP  RH WIND       PRES   REMARKS
CHICAGO-OHARE  PTSUNNY   83  60  45 S10       29.92F
CHICAGO-MIDWAY PTSUNNY   88  59  37 S13G21    29.92F
MOLINE         PTSUNNY   82  65  56 S9        29.88F
ROCKFORD       CLOUDY    85  58  39 S14       29.90F
PEORIA         CLOUDY    85  65  51 S18       29.91S
$$

NOTE: "FAIR" INDICATES FEW OR NO CLOUDS BELOW 12,000 FEET WITH NO
SIGNIFICANT WEATHER AND/OR OBSTRUCTIONS TO VISIBILITY. WIND
SPEEDS ARE IN MILES-PER-HOUR.




USA.gov is the U.S. government's official web portal to all federal, state and local government web resources and services.